Year,Month,Day,Hour,Minute,Value (Times are PST for temperature in C)
2019,04,17,00,00,8.50
2019,04,17,00,01,8.50
2019,04,17,00,02,8.50
2019,04,17,00,03,8.50
2019,04,17,00,04,8.50
2019,04,17,00,05,8.50
2019,04,17,00,06,8.50
2019,04,17,00,07,8.60
2019,04,17,00,08,8.60
2019,04,17,00,09,8.50
2019,04,17,00,10,8.50
2019,04,17,00,11,8.50
2019,04,17,00,12,8.50
2019,04,17,00,13,8.50
2019,04,17,00,14,8.40
2019,04,17,00,15,8.40
2019,04,17,00,16,8.40
2019,04,17,00,17,8.40
2019,04,17,00,18,8.40
2019,04,17,00,19,8.30
2019,04,17,00,20,8.30
2019,04,17,00,21,8.30
2019,04,17,00,22,8.30
2019,04,17,00,23,8.30
2019,04,17,00,24,8.30
2019,04,17,00,25,8.30
2019,04,17,00,26,8.30
2019,04,17,00,27,8.20
2019,04,17,00,28,8.20
2019,04,17,00,29,8.20
2019,04,17,00,30,8.20
2019,04,17,00,31,8.20
2019,04,17,00,32,8.20
2019,04,17,00,33,8.20
2019,04,17,00,34,8.20
2019,04,17,00,35,8.20
2019,04,17,00,36,8.20
2019,04,17,00,37,8.20
2019,04,17,00,38,8.20
2019,04,17,00,39,8.20
2019,04,17,00,40,8.20
2019,04,17,00,41,8.20
2019,04,17,00,42,8.20
2019,04,17,00,43,8.20
2019,04,17,00,44,8.20
2019,04,17,00,45,8.20
2019,04,17,00,46,8.20
2019,04,17,00,47,8.20
2019,04,17,00,48,8.20
2019,04,17,00,49,8.20
2019,04,17,00,50,8.20
2019,04,17,00,51,8.20
2019,04,17,00,52,8.30
2019,04,17,00,53,8.30
2019,04,17,00,54,8.30
2019,04,17,00,55,8.30
2019,04,17,00,56,8.30
2019,04,17,00,57,8.30
2019,04,17,00,58,8.30
2019,04,17,00,59,8.20
2019,04,17,01,00,8.20
2019,04,17,01,01,8.20
2019,04,17,01,02,8.20
2019,04,17,01,03,8.20
2019,04,17,01,04,8.20
2019,04,17,01,05,8.10
2019,04,17,01,06,8.10
2019,04,17,01,07,8.10
2019,04,17,01,08,8.10
2019,04,17,01,09,8.10
2019,04,17,01,10,8.10
2019,04,17,01,11,8.00
2019,04,17,01,12,8.00
2019,04,17,01,13,8.00
2019,04,17,01,14,8.00
2019,04,17,01,15,8.00
2019,04,17,01,16,8.00
2019,04,17,01,17,7.90
2019,04,17,01,18,7.90
2019,04,17,01,19,7.90
2019,04,17,01,20,7.90
2019,04,17,01,21,7.90
2019,04,17,01,22,7.90
2019,04,17,01,23,7.90
2019,04,17,01,24,7.90
2019,04,17,01,25,7.80
2019,04,17,01,26,7.80
2019,04,17,01,27,7.80
2019,04,17,01,28,7.80
2019,04,17,01,29,7.80
2019,04,17,01,30,7.80
2019,04,17,01,31,7.80
2019,04,17,01,32,7.80
2019,04,17,01,33,7.80
2019,04,17,01,34,7.80
2019,04,17,01,35,7.80
2019,04,17,01,36,7.80
2019,04,17,01,37,7.80
2019,04,17,01,38,7.80
2019,04,17,01,39,7.80
2019,04,17,01,40,7.80
2019,04,17,01,41,7.90
2019,04,17,01,42,7.90
2019,04,17,01,43,7.90
2019,04,17,01,44,7.90
2019,04,17,01,45,7.90
2019,04,17,01,46,8.00
2019,04,17,01,47,8.00
2019,04,17,01,48,8.00
2019,04,17,01,49,8.00
2019,04,17,01,50,8.00
2019,04,17,01,51,8.00
2019,04,17,01,52,8.00
2019,04,17,01,53,8.00
2019,04,17,01,54,7.90
2019,04,17,01,55,7.90
2019,04,17,01,56,7.90
2019,04,17,01,57,7.90
2019,04,17,01,58,7.80
2019,04,17,01,59,7.80
2019,04,17,02,00,7.80
2019,04,17,02,01,7.70
2019,04,17,02,02,7.70
2019,04,17,02,03,7.70
2019,04,17,02,04,7.70
2019,04,17,02,05,7.60
2019,04,17,02,06,7.60
2019,04,17,02,07,7.60
2019,04,17,02,08,7.50
2019,04,17,02,09,7.50
2019,04,17,02,10,7.50
2019,04,17,02,11,7.50
2019,04,17,02,12,7.40
2019,04,17,02,13,7.40
2019,04,17,02,14,7.50
2019,04,17,02,15,7.40
2019,04,17,02,16,7.40
2019,04,17,02,17,7.40
2019,04,17,02,18,7.40
2019,04,17,02,19,7.40
2019,04,17,02,20,7.40
2019,04,17,02,21,7.40
2019,04,17,02,22,7.40
2019,04,17,02,23,7.30
2019,04,17,02,24,7.30
2019,04,17,02,25,7.30
2019,04,17,02,26,7.30
2019,04,17,02,27,7.30
2019,04,17,02,28,7.30
2019,04,17,02,29,7.30
2019,04,17,02,30,7.30
2019,04,17,02,31,7.30
2019,04,17,02,32,7.30
2019,04,17,02,33,7.30
2019,04,17,02,34,7.30
2019,04,17,02,35,7.30
2019,04,17,02,36,7.30
2019,04,17,02,37,7.30
2019,04,17,02,38,7.30
2019,04,17,02,39,7.20
2019,04,17,02,40,7.20
2019,04,17,02,41,7.20
2019,04,17,02,42,7.20
2019,04,17,02,43,7.20
2019,04,17,02,44,7.20
2019,04,17,02,45,7.20
2019,04,17,02,46,7.20
2019,04,17,02,47,7.10
2019,04,17,02,48,7.10
2019,04,17,02,49,7.10
2019,04,17,02,50,7.10
2019,04,17,02,51,7.00
2019,04,17,02,52,7.00
2019,04,17,02,53,7.00
2019,04,17,02,54,6.90
2019,04,17,02,55,6.90
2019,04,17,02,56,6.90
2019,04,17,02,57,6.90
2019,04,17,02,58,6.90
2019,04,17,02,59,6.80
2019,04,17,03,00,6.80
2019,04,17,03,01,6.80
2019,04,17,03,02,6.80
2019,04,17,03,03,6.80
2019,04,17,03,04,6.80
2019,04,17,03,05,6.80
2019,04,17,03,06,6.80
2019,04,17,03,07,6.80
2019,04,17,03,08,6.80
2019,04,17,03,09,6.80
2019,04,17,03,10,6.80
2019,04,17,03,11,6.80
2019,04,17,03,12,6.80
2019,04,17,03,13,6.80
2019,04,17,03,14,6.80
2019,04,17,03,15,6.80
2019,04,17,03,16,6.80
2019,04,17,03,17,6.70
2019,04,17,03,18,6.70
2019,04,17,03,19,6.70
2019,04,17,03,20,6.70
2019,04,17,03,21,6.80
2019,04,17,03,22,6.80
2019,04,17,03,23,6.80
2019,04,17,03,24,6.80
2019,04,17,03,25,6.80
2019,04,17,03,26,6.80
2019,04,17,03,27,6.70
2019,04,17,03,28,6.70
2019,04,17,03,29,6.70
2019,04,17,03,30,6.70
2019,04,17,03,31,6.70
2019,04,17,03,32,6.70
2019,04,17,03,33,6.70
2019,04,17,03,34,6.70
2019,04,17,03,35,6.70
2019,04,17,03,36,6.70
2019,04,17,03,37,6.70
2019,04,17,03,38,6.70
2019,04,17,03,39,6.70
2019,04,17,03,40,6.70
2019,04,17,03,41,6.70
2019,04,17,03,42,6.70
2019,04,17,03,43,6.80
2019,04,17,03,44,6.80
2019,04,17,03,45,6.80
2019,04,17,03,46,6.80
2019,04,17,03,47,6.80
2019,04,17,03,48,6.80
2019,04,17,03,49,6.80
2019,04,17,03,50,6.80
2019,04,17,03,51,6.90
2019,04,17,03,52,6.90
2019,04,17,03,53,6.90
2019,04,17,03,54,6.90
2019,04,17,03,55,6.90
2019,04,17,03,56,6.90
2019,04,17,03,57,6.90
2019,04,17,03,58,6.90
2019,04,17,03,59,7.00
2019,04,17,04,00,7.00
2019,04,17,04,01,7.10
2019,04,17,04,02,7.10
2019,04,17,04,03,7.10
2019,04,17,04,04,7.10
2019,04,17,04,05,7.10
2019,04,17,04,06,7.10
2019,04,17,04,07,7.10
2019,04,17,04,08,7.10
2019,04,17,04,09,7.10
2019,04,17,04,10,7.10
2019,04,17,04,11,7.10
2019,04,17,04,12,7.10
2019,04,17,04,13,7.10
2019,04,17,04,14,7.10
2019,04,17,04,15,7.10
2019,04,17,04,16,7.10
2019,04,17,04,17,7.20
2019,04,17,04,18,7.20
2019,04,17,04,19,7.20
2019,04,17,04,20,7.20
2019,04,17,04,21,7.20
2019,04,17,04,22,7.20
2019,04,17,04,23,7.30
2019,04,17,04,24,7.30
2019,04,17,04,25,7.30
2019,04,17,04,26,7.30
2019,04,17,04,27,7.30
2019,04,17,04,28,7.40
2019,04,17,04,29,7.40
2019,04,17,04,30,7.40
2019,04,17,04,31,7.40
2019,04,17,04,32,7.40
2019,04,17,04,33,7.50
2019,04,17,04,34,7.50
2019,04,17,04,35,7.50
2019,04,17,04,36,7.50
2019,04,17,04,37,7.60
2019,04,17,04,38,7.60
2019,04,17,04,39,7.60
2019,04,17,04,40,7.60
2019,04,17,04,41,7.60
2019,04,17,04,42,7.60
2019,04,17,04,43,7.60
2019,04,17,04,44,7.60
2019,04,17,04,45,7.60
2019,04,17,04,46,7.60
2019,04,17,04,47,7.70
2019,04,17,04,48,7.70
2019,04,17,04,49,7.70
2019,04,17,04,50,7.70
2019,04,17,04,51,7.70
2019,04,17,04,52,7.70
2019,04,17,04,53,7.70
2019,04,17,04,54,7.70
2019,04,17,04,55,7.70
2019,04,17,04,56,7.70
2019,04,17,04,57,7.70
2019,04,17,04,58,7.70
2019,04,17,04,59,7.70
2019,04,17,05,00,7.80
2019,04,17,05,01,7.80
2019,04,17,05,02,7.80
2019,04,17,05,03,7.80
2019,04,17,05,04,7.80
2019,04,17,05,05,7.90
2019,04,17,05,06,7.90
2019,04,17,05,07,7.90
2019,04,17,05,08,7.90
2019,04,17,05,09,7.90
2019,04,17,05,10,7.90
2019,04,17,05,11,7.90
2019,04,17,05,12,7.90
2019,04,17,05,13,7.90
2019,04,17,05,14,7.90
2019,04,17,05,15,7.90
2019,04,17,05,16,7.90
2019,04,17,05,17,7.90
2019,04,17,05,18,7.90
2019,04,17,05,19,7.90
2019,04,17,05,20,7.90
2019,04,17,05,21,7.90
2019,04,17,05,22,7.90
2019,04,17,05,23,7.90
2019,04,17,05,24,7.90
2019,04,17,05,25,8.00
2019,04,17,05,26,8.00
2019,04,17,05,27,8.00
2019,04,17,05,28,8.00
2019,04,17,05,29,8.00
2019,04,17,05,30,8.00
2019,04,17,05,31,8.00
2019,04,17,05,32,8.00
2019,04,17,05,33,8.00
2019,04,17,05,34,8.10
2019,04,17,05,35,8.10
2019,04,17,05,36,8.10
2019,04,17,05,37,8.10
2019,04,17,05,38,8.10
2019,04,17,05,39,8.00
2019,04,17,05,40,8.00
2019,04,17,05,41,8.00
2019,04,17,05,42,8.00
2019,04,17,05,43,8.00
2019,04,17,05,44,8.00
2019,04,17,05,45,8.00
2019,04,17,05,46,8.10
2019,04,17,05,47,8.10
2019,04,17,05,48,8.10
2019,04,17,05,49,8.10
2019,04,17,05,50,8.20
2019,04,17,05,51,8.20
2019,04,17,05,52,8.20
2019,04,17,05,53,8.20
2019,04,17,05,54,8.20
2019,04,17,05,55,8.20
2019,04,17,05,56,8.20
2019,04,17,05,57,8.20
2019,04,17,05,58,8.20
2019,04,17,05,59,8.20
2019,04,17,06,00,8.20
2019,04,17,06,01,8.20
2019,04,17,06,02,8.10
2019,04,17,06,03,8.10
2019,04,17,06,04,8.10
2019,04,17,06,05,8.10
2019,04,17,06,06,8.10
2019,04,17,06,07,8.10
2019,04,17,06,08,8.10
2019,04,17,06,09,8.10
2019,04,17,06,10,8.10
2019,04,17,06,11,8.10
2019,04,17,06,12,8.10
2019,04,17,06,13,8.10
2019,04,17,06,14,8.10
2019,04,17,06,15,8.10
2019,04,17,06,16,8.10
2019,04,17,06,17,8.10
2019,04,17,06,18,8.10
2019,04,17,06,19,8.10
2019,04,17,06,20,8.10
2019,04,17,06,21,8.10
2019,04,17,06,22,8.10
2019,04,17,06,23,8.10
2019,04,17,06,24,8.00
2019,04,17,06,25,8.00
2019,04,17,06,26,8.00
2019,04,17,06,27,8.00
2019,04,17,06,28,8.00
2019,04,17,06,29,8.00
2019,04,17,06,30,8.00
2019,04,17,06,31,8.00
2019,04,17,06,32,8.00
2019,04,17,06,33,8.00
2019,04,17,06,34,8.00
2019,04,17,06,35,8.10
2019,04,17,06,36,8.10
2019,04,17,06,37,8.10
2019,04,17,06,38,8.10
2019,04,17,06,39,8.10
2019,04,17,06,40,8.10
2019,04,17,06,41,8.10
2019,04,17,06,42,8.10
2019,04,17,06,43,8.10
2019,04,17,06,44,8.10
2019,04,17,06,45,8.10
2019,04,17,06,46,8.10
2019,04,17,06,47,8.10
2019,04,17,06,48,8.10
2019,04,17,06,49,8.10
2019,04,17,06,50,8.10
2019,04,17,06,51,8.10
2019,04,17,06,52,8.10
2019,04,17,06,53,8.10
2019,04,17,06,54,8.10
2019,04,17,06,55,8.10
2019,04,17,06,56,8.10
2019,04,17,06,57,8.10
2019,04,17,06,58,8.10
2019,04,17,06,59,8.10
2019,04,17,07,00,8.20
2019,04,17,07,01,8.20
2019,04,17,07,02,8.20
2019,04,17,07,03,8.20
2019,04,17,07,04,8.20
2019,04,17,07,05,8.20
2019,04,17,07,06,8.20
2019,04,17,07,07,8.20
2019,04,17,07,08,8.20
2019,04,17,07,09,8.20
2019,04,17,07,10,8.20
2019,04,17,07,11,8.20
2019,04,17,07,12,8.30
2019,04,17,07,13,8.30
2019,04,17,07,14,8.30
2019,04,17,07,15,8.30
2019,04,17,07,16,8.30
2019,04,17,07,17,8.30
2019,04,17,07,18,8.30
2019,04,17,07,19,8.30
2019,04,17,07,20,8.30
2019,04,17,07,21,8.40
2019,04,17,07,22,8.40
2019,04,17,07,23,8.40
2019,04,17,07,24,8.50
2019,04,17,07,25,8.50
2019,04,17,07,26,8.50
2019,04,17,07,27,8.50
2019,04,17,07,28,8.50
2019,04,17,07,29,8.50
2019,04,17,07,30,8.50
2019,04,17,07,31,8.50
2019,04,17,07,32,8.50
2019,04,17,07,33,8.60
2019,04,17,07,34,8.60
2019,04,17,07,35,8.60
2019,04,17,07,36,8.60
2019,04,17,07,37,8.60
2019,04,17,07,38,8.60
2019,04,17,07,39,8.60
2019,04,17,07,40,8.70
2019,04,17,07,41,8.70
2019,04,17,07,42,8.70
2019,04,17,07,43,8.70
2019,04,17,07,44,8.70
2019,04,17,07,45,8.80
2019,04,17,07,46,8.80
2019,04,17,07,47,8.80
2019,04,17,07,48,8.90
2019,04,17,07,49,8.90
2019,04,17,07,50,8.90
2019,04,17,07,51,9.00
2019,04,17,07,52,9.00
2019,04,17,07,53,9.00
2019,04,17,07,54,9.00
2019,04,17,07,55,9.10
2019,04,17,07,56,9.10
2019,04,17,07,57,9.10
2019,04,17,07,58,9.20
2019,04,17,07,59,9.20
2019,04,17,08,00,9.20
2019,04,17,08,01,9.20
2019,04,17,08,02,9.20
2019,04,17,08,03,9.30
2019,04,17,08,04,9.30
2019,04,17,08,05,9.30
2019,04,17,08,06,9.30
2019,04,17,08,07,9.30
2019,04,17,08,08,9.30
2019,04,17,08,09,9.30
2019,04,17,08,10,9.30
2019,04,17,08,11,9.30
2019,04,17,08,12,9.30
2019,04,17,08,13,9.30
2019,04,17,08,14,9.40
2019,04,17,08,15,9.40
2019,04,17,08,16,9.40
2019,04,17,08,17,9.40
2019,04,17,08,18,9.40
2019,04,17,08,19,9.40
2019,04,17,08,20,9.50
2019,04,17,08,21,9.50
2019,04,17,08,22,9.50
2019,04,17,08,23,9.50
2019,04,17,08,24,9.60
2019,04,17,08,25,9.60
2019,04,17,08,26,9.60
2019,04,17,08,27,9.60
2019,04,17,08,28,9.60
2019,04,17,08,29,9.60
2019,04,17,08,30,9.60
2019,04,17,08,31,9.60
2019,04,17,08,32,9.60
2019,04,17,08,33,9.60
2019,04,17,08,34,9.60
2019,04,17,08,35,9.70
2019,04,17,08,36,9.70
2019,04,17,08,37,9.70
2019,04,17,08,38,9.70
2019,04,17,08,39,9.70
2019,04,17,08,40,9.70
2019,04,17,08,41,9.80
2019,04,17,08,42,9.80
2019,04,17,08,43,9.80
2019,04,17,08,44,9.90
2019,04,17,08,45,9.90
2019,04,17,08,46,10.00
2019,04,17,08,47,10.00
2019,04,17,08,48,10.00
2019,04,17,08,49,10.00
2019,04,17,08,50,10.00
2019,04,17,08,51,10.10
2019,04,17,08,52,10.10
2019,04,17,08,53,10.10
2019,04,17,08,54,10.00
2019,04,17,08,55,10.00
2019,04,17,08,56,10.00
2019,04,17,08,57,10.00
2019,04,17,08,58,10.00
2019,04,17,08,59,10.10
2019,04,17,09,00,10.10
2019,04,17,09,01,10.10
2019,04,17,09,02,10.10
2019,04,17,09,03,10.10
2019,04,17,09,04,10.10
2019,04,17,09,05,10.10
2019,04,17,09,06,10.10
2019,04,17,09,07,10.20
2019,04,17,09,08,10.20
2019,04,17,09,09,10.20
2019,04,17,09,10,10.20
2019,04,17,09,11,10.20
2019,04,17,09,12,10.30
2019,04,17,09,13,10.30
2019,04,17,09,14,10.30
2019,04,17,09,15,10.30
2019,04,17,09,16,10.30
2019,04,17,09,17,10.30
2019,04,17,09,18,10.30
2019,04,17,09,19,10.30
2019,04,17,09,20,10.30
2019,04,17,09,21,10.30
2019,04,17,09,22,10.40
2019,04,17,09,23,10.40
2019,04,17,09,24,10.50
2019,04,17,09,25,10.50
2019,04,17,09,26,10.50
2019,04,17,09,27,10.50
2019,04,17,09,28,10.50
2019,04,17,09,29,10.60
2019,04,17,09,30,10.60
2019,04,17,09,31,10.60
2019,04,17,09,32,10.60
2019,04,17,09,33,10.70
2019,04,17,09,34,10.70
2019,04,17,09,35,10.70
2019,04,17,09,36,10.70
2019,04,17,09,37,10.70
2019,04,17,09,38,10.70
2019,04,17,09,39,10.80
2019,04,17,09,40,10.80
2019,04,17,09,41,10.80
2019,04,17,09,42,10.80
2019,04,17,09,43,10.90
2019,04,17,09,44,10.90
2019,04,17,09,45,10.90
2019,04,17,09,46,10.90
2019,04,17,09,47,10.90
2019,04,17,09,48,10.90
2019,04,17,09,49,11.00
2019,04,17,09,50,11.00
2019,04,17,09,51,11.00
2019,04,17,09,52,11.10
2019,04,17,09,53,11.10
2019,04,17,09,54,11.10
2019,04,17,09,55,11.20
2019,04,17,09,56,11.20
2019,04,17,09,57,11.20
2019,04,17,09,58,11.20
2019,04,17,09,59,11.20
2019,04,17,10,00,11.20
2019,04,17,10,01,11.30
2019,04,17,10,02,11.30
2019,04,17,10,03,11.30
2019,04,17,10,04,11.30
2019,04,17,10,05,11.30
2019,04,17,10,06,11.30
2019,04,17,10,07,11.30
2019,04,17,10,08,11.40
2019,04,17,10,09,11.40
2019,04,17,10,10,11.40
2019,04,17,10,11,11.50
2019,04,17,10,12,11.50
2019,04,17,10,13,11.50
2019,04,17,10,14,11.50
2019,04,17,10,15,11.50
2019,04,17,10,16,11.60
2019,04,17,10,17,11.60
2019,04,17,10,18,11.70
2019,04,17,10,19,11.70
2019,04,17,10,20,11.80
2019,04,17,10,21,11.90
2019,04,17,10,22,12.00
2019,04,17,10,23,12.10
2019,04,17,10,24,12.10
2019,04,17,10,25,12.10
2019,04,17,10,26,12.20
2019,04,17,10,27,12.20
2019,04,17,10,28,12.30
2019,04,17,10,29,12.30
2019,04,17,10,30,12.30
2019,04,17,10,31,12.30
2019,04,17,10,32,12.20
2019,04,17,10,33,12.20
2019,04,17,10,34,12.30
2019,04,17,10,35,12.30
2019,04,17,10,36,12.30
2019,04,17,10,37,12.30
2019,04,17,10,38,12.40
2019,04,17,10,39,12.40
2019,04,17,10,40,12.50
2019,04,17,10,41,12.50
2019,04,17,10,42,12.50
2019,04,17,10,43,12.50
2019,04,17,10,44,12.60
2019,04,17,10,45,12.60
2019,04,17,10,46,12.60
2019,04,17,10,47,12.70
2019,04,17,10,48,12.60
2019,04,17,10,49,12.60
2019,04,17,10,50,12.60
2019,04,17,10,51,12.60
2019,04,17,10,52,12.70
2019,04,17,10,53,12.70
2019,04,17,10,54,12.70
2019,04,17,10,55,12.70
2019,04,17,10,56,12.80
2019,04,17,10,57,12.80
2019,04,17,10,58,12.80
2019,04,17,10,59,12.90
2019,04,17,11,00,12.90
2019,04,17,11,01,12.90
2019,04,17,11,02,13.00
2019,04,17,11,03,13.10
2019,04,17,11,04,13.20
2019,04,17,11,05,13.30
2019,04,17,11,06,13.30
2019,04,17,11,07,13.30
2019,04,17,11,08,13.40
2019,04,17,11,09,13.40
2019,04,17,11,10,13.50
2019,04,17,11,11,13.50
2019,04,17,11,12,13.60
2019,04,17,11,13,13.60
2019,04,17,11,14,13.60
2019,04,17,11,15,13.60
2019,04,17,11,16,13.60
2019,04,17,11,17,13.70
2019,04,17,11,18,13.70
2019,04,17,11,19,13.60
2019,04,17,11,20,13.60
2019,04,17,11,21,13.50
2019,04,17,11,22,13.50
2019,04,17,11,23,13.60
2019,04,17,11,24,13.60
2019,04,17,11,25,13.60
2019,04,17,11,26,13.60
2019,04,17,11,27,13.60
2019,04,17,11,28,13.60
2019,04,17,11,29,13.70
2019,04,17,11,30,13.70
2019,04,17,11,31,13.80
2019,04,17,11,32,13.80
2019,04,17,11,33,13.80
2019,04,17,11,34,13.70
2019,04,17,11,35,13.70
2019,04,17,11,36,13.80
2019,04,17,11,37,13.90
2019,04,17,11,38,14.00
2019,04,17,11,39,14.00
2019,04,17,11,40,14.10
2019,04,17,11,41,14.10
2019,04,17,11,42,14.10
2019,04,17,11,43,14.20
2019,04,17,11,44,14.20
2019,04,17,11,45,14.20
2019,04,17,11,46,14.20
2019,04,17,11,47,14.20
2019,04,17,11,48,14.20
2019,04,17,11,49,14.30
2019,04,17,11,50,14.30
2019,04,17,11,51,14.30
2019,04,17,11,52,14.30
2019,04,17,11,53,14.40
2019,04,17,11,54,14.50
2019,04,17,11,55,14.50
2019,04,17,11,56,14.50
2019,04,17,11,57,14.60
2019,04,17,11,58,14.60
2019,04,17,11,59,14.70
2019,04,17,12,00,14.70
2019,04,17,12,01,14.70
2019,04,17,12,02,14.60
2019,04,17,12,03,14.60
2019,04,17,12,04,14.60
2019,04,17,12,05,14.60
2019,04,17,12,06,14.60
2019,04,17,12,07,14.70
2019,04,17,12,08,14.80
2019,04,17,12,09,14.80
2019,04,17,12,10,14.80
2019,04,17,12,11,14.80
2019,04,17,12,12,14.80
2019,04,17,12,13,14.80
2019,04,17,12,14,14.80
2019,04,17,12,15,14.90
2019,04,17,12,16,14.90
2019,04,17,12,17,15.00
2019,04,17,12,18,15.10
2019,04,17,12,19,15.20
2019,04,17,12,20,15.20
2019,04,17,12,21,15.20
2019,04,17,12,22,15.20
2019,04,17,12,23,15.20
2019,04,17,12,24,15.10
2019,04,17,12,25,15.10
2019,04,17,12,26,15.10
2019,04,17,12,27,15.10
2019,04,17,12,28,15.10
2019,04,17,12,29,15.10
2019,04,17,12,30,15.10
2019,04,17,12,31,15.10
2019,04,17,12,32,15.10
2019,04,17,12,33,15.20
2019,04,17,12,34,15.20
2019,04,17,12,35,15.20
2019,04,17,12,36,15.20
2019,04,17,12,37,15.20
2019,04,17,12,38,15.20
2019,04,17,12,39,15.20
2019,04,17,12,40,15.20
2019,04,17,12,41,15.30
2019,04,17,12,42,15.40
2019,04,17,12,43,15.40
2019,04,17,12,44,15.50
2019,04,17,12,45,15.50
2019,04,17,12,46,15.60
2019,04,17,12,47,15.50
2019,04,17,12,48,15.40
2019,04,17,12,49,15.30
2019,04,17,12,50,15.20
2019,04,17,12,51,14.90
2019,04,17,12,52,14.80
2019,04,17,12,53,14.70
2019,04,17,12,54,14.60
2019,04,17,12,55,14.60
2019,04,17,12,56,14.60
2019,04,17,12,57,14.60
2019,04,17,12,58,14.60
2019,04,17,12,59,14.70
2019,04,17,13,00,14.70
2019,04,17,13,01,14.80
2019,04,17,13,02,14.70
2019,04,17,13,03,14.70
2019,04,17,13,04,14.70
2019,04,17,13,05,14.70
2019,04,17,13,06,14.60
2019,04,17,13,07,14.60
2019,04,17,13,08,14.50
2019,04,17,13,09,14.50
2019,04,17,13,10,14.40
2019,04,17,13,11,14.40
2019,04,17,13,12,14.40
2019,04,17,13,13,14.50
2019,04,17,13,14,14.50
2019,04,17,13,15,14.60
2019,04,17,13,16,14.70
2019,04,17,13,17,14.80
2019,04,17,13,18,14.80
2019,04,17,13,19,14.80
2019,04,17,13,20,14.70
2019,04,17,13,21,14.70
2019,04,17,13,22,14.60
2019,04,17,13,23,14.50
2019,04,17,13,24,14.50
2019,04,17,13,25,14.50
2019,04,17,13,26,14.40
2019,04,17,13,27,14.30
2019,04,17,13,28,14.10
2019,04,17,13,29,14.00
2019,04,17,13,30,14.00
2019,04,17,13,31,13.90
2019,04,17,13,32,13.90
2019,04,17,13,33,13.90
2019,04,17,13,34,13.90
2019,04,17,13,35,13.80
2019,04,17,13,36,13.80
2019,04,17,13,37,13.70
2019,04,17,13,38,13.70
2019,04,17,13,39,13.60
2019,04,17,13,40,13.60
2019,04,17,13,41,13.50
2019,04,17,13,42,13.50
2019,04,17,13,43,13.60
2019,04,17,13,44,13.60
2019,04,17,13,45,13.60
2019,04,17,13,46,13.60
2019,04,17,13,47,13.60
2019,04,17,13,48,13.60
2019,04,17,13,49,13.70
2019,04,17,13,50,13.70
2019,04,17,13,51,13.70
2019,04,17,13,52,13.60
2019,04,17,13,53,13.60
2019,04,17,13,54,13.60
2019,04,17,13,55,13.50
2019,04,17,13,56,13.50
2019,04,17,13,57,13.50
2019,04,17,13,58,13.50
2019,04,17,13,59,13.50
2019,04,17,14,00,13.50
2019,04,17,14,01,13.60
2019,04,17,14,02,13.60
2019,04,17,14,03,13.60
2019,04,17,14,04,13.60
2019,04,17,14,05,13.60
2019,04,17,14,06,13.60
2019,04,17,14,07,13.70
2019,04,17,14,08,13.70
2019,04,17,14,09,13.70
2019,04,17,14,10,13.70
2019,04,17,14,11,13.80
2019,04,17,14,12,13.80
2019,04,17,14,13,13.70
2019,04,17,14,14,13.70
2019,04,17,14,15,13.70
2019,04,17,14,16,13.70
2019,04,17,14,17,13.70
2019,04,17,14,18,13.70
2019,04,17,14,19,13.70
2019,04,17,14,20,13.80
2019,04,17,14,21,13.80
2019,04,17,14,22,13.80
2019,04,17,14,23,13.80
2019,04,17,14,24,13.80
2019,04,17,14,25,13.80
2019,04,17,14,26,13.80
2019,04,17,14,27,13.80
2019,04,17,14,28,13.80
2019,04,17,14,29,13.80
2019,04,17,14,30,13.90
2019,04,17,14,31,13.90
2019,04,17,14,32,13.80
2019,04,17,14,33,13.70
2019,04,17,14,34,13.70
2019,04,17,14,35,13.60
2019,04,17,14,36,13.50
2019,04,17,14,37,13.50
2019,04,17,14,38,13.50
2019,04,17,14,39,13.50
2019,04,17,14,40,13.50
2019,04,17,14,41,13.50
2019,04,17,14,42,13.60
2019,04,17,14,43,13.60
2019,04,17,14,44,13.70
2019,04,17,14,45,13.70
2019,04,17,14,46,13.80
2019,04,17,14,47,13.80
2019,04,17,14,48,13.80
2019,04,17,14,49,13.90
2019,04,17,14,50,14.00
2019,04,17,14,51,14.10
2019,04,17,14,52,14.20
2019,04,17,14,53,14.20
2019,04,17,14,54,14.20
2019,04,17,14,55,14.20
2019,04,17,14,56,14.20
2019,04,17,14,57,14.20
2019,04,17,14,58,14.20
2019,04,17,14,59,14.20
2019,04,17,15,00,14.20
2019,04,17,15,01,14.20
2019,04,17,15,02,14.30
2019,04,17,15,03,14.30
2019,04,17,15,04,14.40
2019,04,17,15,05,14.40
2019,04,17,15,06,14.40
2019,04,17,15,07,14.50
2019,04,17,15,08,14.50
2019,04,17,15,09,14.50
2019,04,17,15,10,14.50
2019,04,17,15,11,14.60
2019,04,17,15,12,14.60
2019,04,17,15,13,14.50
2019,04,17,15,14,14.50
2019,04,17,15,15,14.40
2019,04,17,15,16,14.40
2019,04,17,15,17,14.50
2019,04,17,15,18,14.50
2019,04,17,15,19,14.60
2019,04,17,15,20,14.60
2019,04,17,15,21,14.60
2019,04,17,15,22,14.60
2019,04,17,15,23,14.60
2019,04,17,15,24,14.60
2019,04,17,15,25,14.50
2019,04,17,15,26,14.40
2019,04,17,15,27,14.40
2019,04,17,15,28,14.30
2019,04,17,15,29,14.30
2019,04,17,15,30,14.30
2019,04,17,15,31,14.30
2019,04,17,15,32,14.30
2019,04,17,15,33,14.40
2019,04,17,15,34,14.50
2019,04,17,15,35,14.50
2019,04,17,15,36,14.60
2019,04,17,15,37,14.70
2019,04,17,15,38,14.70
2019,04,17,15,39,14.70
2019,04,17,15,40,14.70
2019,04,17,15,41,14.70
2019,04,17,15,42,14.70
2019,04,17,15,43,14.70
2019,04,17,15,44,14.70
2019,04,17,15,45,14.70
2019,04,17,15,46,14.70
2019,04,17,15,47,14.70
2019,04,17,15,48,14.70
2019,04,17,15,49,14.70
2019,04,17,15,50,14.70
2019,04,17,15,51,14.70
2019,04,17,15,52,14.70
2019,04,17,15,53,14.70
2019,04,17,15,54,14.60
2019,04,17,15,55,14.60
2019,04,17,15,56,14.60
2019,04,17,15,57,14.50
2019,04,17,15,58,14.40
2019,04,17,15,59,14.30
2019,04,17,16,00,14.20
2019,04,17,16,01,14.10
2019,04,17,16,02,14.00
2019,04,17,16,03,14.00
2019,04,17,16,04,13.90
2019,04,17,16,05,13.90
2019,04,17,16,06,13.80
2019,04,17,16,07,13.80
2019,04,17,16,08,13.80
2019,04,17,16,09,13.80
2019,04,17,16,10,13.70
2019,04,17,16,11,13.70
2019,04,17,16,12,13.80
2019,04,17,16,13,13.80
2019,04,17,16,14,13.90
2019,04,17,16,15,13.90
2019,04,17,16,16,14.00
2019,04,17,16,17,14.00
2019,04,17,16,18,14.10
2019,04,17,16,19,14.10
2019,04,17,16,20,14.10
2019,04,17,16,21,14.10
2019,04,17,16,22,14.10
2019,04,17,16,23,14.10
2019,04,17,16,24,14.10
2019,04,17,16,25,14.10
2019,04,17,16,26,14.10
2019,04,17,16,27,14.10
2019,04,17,16,28,14.00
2019,04,17,16,29,14.00
2019,04,17,16,30,14.00
2019,04,17,16,31,14.00
2019,04,17,16,32,14.00
2019,04,17,16,33,14.00
2019,04,17,16,34,14.00
2019,04,17,16,35,14.10
2019,04,17,16,36,14.10
2019,04,17,16,37,14.10
2019,04,17,16,38,14.10
2019,04,17,16,39,14.20
2019,04,17,16,40,14.20
2019,04,17,16,41,14.10
2019,04,17,16,42,14.10
2019,04,17,16,43,14.10
2019,04,17,16,44,14.00
2019,04,17,16,45,13.90
2019,04,17,16,46,13.90
2019,04,17,16,47,13.80
2019,04,17,16,48,13.80
2019,04,17,16,49,13.90
2019,04,17,16,50,13.80
2019,04,17,16,51,13.80
2019,04,17,16,52,13.80
2019,04,17,16,53,13.80
2019,04,17,16,54,13.80
2019,04,17,16,55,13.70
2019,04,17,16,56,13.70
2019,04,17,16,57,13.70
2019,04,17,16,58,13.60
2019,04,17,16,59,13.60
2019,04,17,17,00,13.60
2019,04,17,17,01,13.60
2019,04,17,17,02,13.60
2019,04,17,17,03,13.60
2019,04,17,17,04,13.60
2019,04,17,17,05,13.60
2019,04,17,17,06,13.60
2019,04,17,17,07,13.50
2019,04,17,17,08,13.50
2019,04,17,17,09,13.50
2019,04,17,17,10,13.50
2019,04,17,17,11,13.50
2019,04,17,17,12,13.50
2019,04,17,17,13,13.50
2019,04,17,17,14,13.50
2019,04,17,17,15,13.50
2019,04,17,17,16,13.50
2019,04,17,17,17,13.50
2019,04,17,17,18,13.40
2019,04,17,17,19,13.40
2019,04,17,17,20,13.40
2019,04,17,17,21,13.40
2019,04,17,17,22,13.40
2019,04,17,17,23,13.40
2019,04,17,17,24,13.40
2019,04,17,17,25,13.40
2019,04,17,17,26,13.30
2019,04,17,17,27,13.30
2019,04,17,17,28,13.30
2019,04,17,17,29,13.30
2019,04,17,17,30,13.30
2019,04,17,17,31,13.30
2019,04,17,17,32,13.30
2019,04,17,17,33,13.30
2019,04,17,17,34,13.30
2019,04,17,17,35,13.30
2019,04,17,17,36,13.30
2019,04,17,17,37,13.30
2019,04,17,17,38,13.30
2019,04,17,17,39,13.30
2019,04,17,17,40,13.20
2019,04,17,17,41,13.20
2019,04,17,17,42,13.20